Powrót do katalogu

FENGYUN 1C DEB

AktywnySSO
NORAD 30762·DEBRIS·🇨🇳 China

Wystrzelony May 10, 1999 z Taiyuan Satellite Launch Center

Loading…

Następne Przeloty (najbliższe 24 godziny)

TLE

ŚwieżeSource: Space-Track

Epoka: Sep 12, 2026, 11:25 UTC

1 30762U 99025ATY 26255.47634374  .00000346  00000-0  23148-3 0  9995
2 30762  98.8953 242.8680 0196240 257.5845 234.7449 13.98427841994631

Śledź FENGYUN 1C DEB w czasie rzeczywistym z AllMySat

Download on the App Store